Flag for France Weather past 2 weeks in Lille, France

Now
48 °F

Passing clouds.


Feels Like: 41 °F
Forecast: 46 / 56 °F
Wind: 22 mph from West

Location: Lille Airport

Current Time: Oct 21, 2014 at 11:55:51 PM

Latest Report: Oct 21, 2014 at 11:30 PM


Visibility: N/A

Pressure: 29.98 "Hg

Humidity: 66%

Dew point: 37 °F

Location of LilleLocation

Historic Weather in Lille — Graph

°F

Lille temperature yesterday

Maximum temperature yesterday: 64 °F (at 2:00 PM)
Minimum temperature yesterday: 54 °F (at 7:30 AM)
Average temperature yesterday: 59 °F

Past Weeks' High & Low Weather Summary

 TemperatureHumidityPressure
High73 °F (Oct 18, 4:00 PM)100% (Oct 6, 10:30 PM)30.09 "Hg (Oct 6, 10:30 PM)
Low46 °F (Oct 12, 6:00 AM)52% (Oct 9, 4:00 PM)29.45 "Hg (Oct 7, 6:30 AM)
Average58 °F85%29.79 "Hg
* Reported Oct 6 10:00 PM — Oct 21 10:30 PM, Lille, Weather by CustomWeather, © 2014

Note: Actual official high and low records may vary slightly from our data, if they occured in-between our weather recording intervals... More about our weather records

Advertising

Lille weather history for previous 24 hours

 ConditionsComfort  
Time TempWeatherWind HumidityBarometerVisibility
10:30 PM
Oct 21
48 °FPassing clouds.21 mph71%29.95 "HgN/A
10:00 PM48 °FClear.21 mph71%29.92 "Hg10 mi
9:30 PM48 °FClear.24 mph71%29.92 "Hg10 mi
9:00 PM50 °FClear.22 mph62%29.89 "Hg10 mi
8:30 PM50 °FPassing clouds.32 mph67%29.89 "HgN/A
8:00 PM52 °FPassing clouds.22 mph67%29.86 "HgN/A
7:30 PM50 °FPassing clouds.17 mph71%29.83 "HgN/A
7:00 PM52 °FScattered clouds.22 mph67%29.80 "HgN/A
6:30 PM54 °FSprinkles. Scattered clouds.17 mph63%29.80 "HgN/A
6:00 PM55 °FPassing clouds.22 mph55%29.77 "HgN/A
5:30 PM54 °FPassing clouds.18 mph63%29.74 "HgN/A
5:00 PM55 °FScattered clouds.22 mph59%29.74 "HgN/A
4:30 PM55 °FPassing clouds.25 mph55%29.71 "HgN/A
4:00 PM57 °FScattered clouds.25 mph55%29.71 "HgN/A
3:30 PM57 °FPartly sunny.28 mph55%29.68 "HgN/A
3:00 PM57 °FScattered clouds.28 mph59%29.65 "HgN/A
2:30 PM61 °FScattered clouds.30 mph63%29.62 "HgN/A
2:00 PM57 °FPartly sunny.24 mph72%29.62 "HgN/A
1:47 PM57 °FLight rain. Broken clouds.28 mph77%29.62 "HgN/A
1:00 PM57 °FLight rain. Broken clouds.22 mph94%29.59 "HgN/A
12:00 PM55 °FLight rain. Partly sunny.22 mph94%29.62 "HgN/A
11:30 AM55 °FLight rain. Partly sunny.23 mph94%29.65 "HgN/A
11:00 AM55 °FLight rain. Partly sunny.23 mph88%29.68 "HgN/A
10:30 AM55 °FLight rain. Partly sunny.21 mph88%29.68 "HgN/A
10:00 AM55 °FMostly cloudy.21 mph82%29.71 "HgN/A
9:30 AM55 °FMostly cloudy.20 mph82%29.71 "HgN/A
9:00 AM55 °FMostly cloudy.18 mph82%29.74 "HgN/A
8:30 AM54 °FMostly cloudy.18 mph88%29.74 "HgN/A
8:00 AM54 °FMostly cloudy.16 mph94%29.77 "HgN/A
7:30 AM54 °FMostly cloudy.21 mph88%29.77 "HgN/A
7:00 AM55 °FMostly cloudy.16 mph82%29.80 "HgN/A
6:30 AM54 °FClear.16 mph88%29.80 "Hg10 mi
6:00 AM55 °FClear.14 mph82%29.80 "Hg10 mi
5:00 AM54 °FPassing clouds.10 mph88%29.86 "HgN/A
4:30 AM55 °FClear.10 mph82%29.86 "HgN/A
4:00 AM54 °FPassing clouds.12 mph94%29.89 "HgN/A
3:30 AM54 °FClear.13 mph88%29.89 "HgN/A
3:00 AM55 °FOvercast.10 mph88%29.92 "HgN/A
2:30 AM55 °FOvercast.12 mph82%29.92 "HgN/A
2:00 AM55 °FClear.10 mph88%29.95 "HgN/A
1:30 AM54 °FClear.8 mph94%29.95 "HgN/A
1:00 AM54 °FClear.8 mph88%29.95 "Hg10 mi
12:30 AM54 °FClear.7 mph94%29.95 "HgN/A
12:00 AM54 °FClear.7 mph94%29.98 "HgN/A
11:30 PM
Oct 20
54 °FClear.9 mph88%29.98 "HgN/A
11:00 PM55 °FClear.9 mph88%29.98 "Hg10 mi
Weather by CustomWeather, © 2014

See weather overviewHow to use our weather pages